Weather History for Buckeye, AZ

Change the Weather History Date:

Friday, June 14, 2013

  Actual Average (KGYR) Record (KGYR)
Temperature  
Mean Temperature 90 °F -  
Max Temperature 104 °F 100 °F 111 °F (2000)
Min Temperature 77 °F 71 °F 62 °F (1997)
Cooling Degree Days 26    
Growing Degree Days 40 (Base 50)    
Moisture  
Dew Point 40 °F    
Average Humidity 18    
Maximum Humidity 28    
Minimum Humidity 9    
Precipitation  
Precipitation 0.00 in - - ()
Sea Level Pressure  
Sea Level Pressure 29.78 in    
Wind  
Wind Speed 5 mph (WSW)    
Max Wind Speed 12 mph    
Max Gust Speed 16 mph    
Visibility 10 miles    
Events      
Averages and records for this station are not official NWS values.
T = Trace of Precipitation, MM = Missing Value Source: NWS Daily Summary

Daily Weather History Graph

Daily Weather History Graph

Search for Another Location

Airport:

Trip Planner

Search our weather history database for the weather conditions in past years. The results will help you decide how hot, cold, wet, or windy it might be!

Date:

Astronomy

Jun. 14, 2013 Rise Set
Actual Time 5:20 AM MST 7:41 PM MST
Civil Twilight 4:51 AM MST 8:10 PM MST
Nautical Twilight 4:16 AM MST 8:46 PM MST
Astronomical Twilight 3:37 AM MST 9:24 PM MST
Moon 10:44 AM MST (6/14) 11:35 PM MST (6/14)
Length of Visible Light 15h 19m
Length of Day
14h 21m
Waxing Crescent, 31% of the Moon is Illuminated
Jun 14
Waxing Crescent
Jun 16
First Quarter
Jun 23
Full
Jun 29
Last Quarter
Jul 8
New

Hourly Weather History & Observations

Time (MST) Temp. Dew Point Humidity Pressure Visibility Wind Dir Wind Speed Gust Speed Precip Events Conditions
12:15 AM 82.4 °F 46.4 °F 28% 29.79 in 10.0 mi West 4.6 mph - N/A   Clear
12:35 AM 82.4 °F 46.4 °F 28% 29.79 in 8.0 mi NNW 5.8 mph - N/A   Clear
12:55 AM 80.6 °F 44.6 °F 28% 29.79 in 10.0 mi NW 6.9 mph - N/A   Clear
1:15 AM 82.4 °F 46.4 °F 28% 29.79 in 9.0 mi NW 4.6 mph - N/A   Clear
1:35 AM 82.4 °F 46.4 °F 28% 29.79 in 10.0 mi West 6.9 mph - N/A   Clear
1:55 AM 82.4 °F 46.4 °F 28% 29.79 in 10.0 mi WNW 5.8 mph - N/A   Clear
2:15 AM 82.4 °F 44.6 °F 26% 29.79 in 10.0 mi WNW 3.5 mph - N/A   Scattered Clouds
2:35 AM 82.4 °F 44.6 °F 26% 29.79 in 10.0 mi WNW 4.6 mph - N/A   Overcast
2:55 AM 80.6 °F 44.6 °F 28% 29.79 in 10.0 mi NW 4.6 mph - N/A   Overcast
3:15 AM 82.4 °F 44.6 °F 26% 29.80 in 10.0 mi North 4.6 mph - N/A   Overcast
3:35 AM 80.6 °F 44.6 °F 28% 29.80 in 10.0 mi NW 4.6 mph - N/A   Overcast
3:55 AM 80.6 °F 44.6 °F 28% 29.80 in 10.0 mi WNW 4.6 mph - N/A   Overcast
4:15 AM 80.6 °F 44.6 °F 28% 29.81 in 9.0 mi West 5.8 mph - N/A   Overcast
4:35 AM 80.6 °F 42.8 °F 26% 29.81 in 10.0 mi West 5.8 mph - N/A   Overcast
4:55 AM 77.0 °F 41.0 °F 28% 29.81 in 10.0 mi West 6.9 mph - N/A   Partly Cloudy
5:15 AM 77.0 °F 41.0 °F 28% 29.82 in 10.0 mi West 6.9 mph - N/A   Clear
5:35 AM 77.0 °F 41.0 °F 28% 29.82 in 10.0 mi West 6.9 mph - N/A   Clear
5:55 AM 77.0 °F 41.0 °F 28% 29.83 in 10.0 mi West 4.6 mph - N/A   Clear
6:15 AM 80.6 °F 41.0 °F 24% 29.84 in 10.0 mi WNW 3.5 mph - N/A   Partly Cloudy
6:35 AM 80.6 °F 44.6 °F 28% 29.84 in 10.0 mi Calm Calm - N/A   Clear
6:55 AM 82.4 °F 42.8 °F 25% 29.85 in 10.0 mi West 3.5 mph - N/A   Clear
7:15 AM 82.4 °F 41.0 °F 23% 29.86 in 10.0 mi West 4.6 mph - N/A   Clear
7:35 AM 84.2 °F 41.0 °F 22% 29.87 in 10.0 mi SSW 3.5 mph - N/A   Clear
7:55 AM 84.2 °F 42.8 °F 23% 29.87 in 10.0 mi SSW 3.5 mph - N/A   Clear
8:15 AM 86.0 °F 44.6 °F 23% 29.88 in 10.0 mi SSE 3.5 mph - N/A   Clear
8:35 AM 86.0 °F 42.8 °F 22% 29.88 in 10.0 mi SSW 3.5 mph - N/A   Clear
8:55 AM 87.8 °F 41.0 °F 19% 29.87 in 10.0 mi WSW 4.6 mph - N/A   Clear
9:15 AM 89.6 °F 41.0 °F 18% 29.87 in 10.0 mi SSW 4.6 mph - N/A   Clear
9:35 AM 89.6 °F 39.2 °F 17% 29.86 in 10.0 mi SW 5.8 mph - N/A   Clear
9:55 AM 91.4 °F 37.4 °F 15% 29.86 in 10.0 mi West 5.8 mph - N/A   Clear
10:15 AM 93.2 °F 37.4 °F 14% 29.85 in 10.0 mi West 4.6 mph - N/A   Clear
10:35 AM 93.2 °F 37.4 °F 14% 29.85 in 10.0 mi Calm Calm - N/A   Clear
10:55 AM 95.0 °F 37.4 °F 13% 29.85 in 10.0 mi SW 9.2 mph - N/A   Clear
11:15 AM 95.0 °F 39.2 °F 14% 29.84 in 10.0 mi West 3.5 mph - N/A   Clear
11:35 AM 95.0 °F 39.2 °F 14% 29.84 in 10.0 mi SW 8.1 mph - N/A   Clear
11:55 AM 95.0 °F 39.2 °F 14% 29.83 in 10.0 mi SW 8.1 mph - N/A   Clear
12:15 PM 98.6 °F 39.2 °F 13% 29.82 in 10.0 mi SE 5.8 mph - N/A   Clear
12:35 PM 98.6 °F 41.0 °F 14% 29.82 in 10.0 mi South 9.2 mph - N/A   Clear
12:55 PM 98.6 °F 41.0 °F 14% 29.81 in 10.0 mi South 8.1 mph - N/A   Clear
1:15 PM 98.6 °F 39.2 °F 13% 29.80 in 10.0 mi SSE 4.6 mph - N/A   Clear
1:35 PM 98.6 °F 39.2 °F 13% 29.79 in 10.0 mi South 6.9 mph - N/A   Clear
1:55 PM 100.4 °F 39.2 °F 12% 29.78 in 10.0 mi SW 4.6 mph - N/A   Clear
2:15 PM 100.4 °F 37.4 °F 11% 29.77 in 10.0 mi SSE 8.1 mph - N/A   Clear
2:35 PM 102.2 °F 37.4 °F 11% 29.77 in 10.0 mi SW 6.9 mph - N/A   Clear
2:55 PM 102.2 °F 39.2 °F 11% 29.76 in 10.0 mi SSE 6.9 mph - N/A   Clear
3:15 PM 102.2 °F 37.4 °F 11% 29.75 in 10.0 mi South 5.8 mph 16.1 mph N/A   Clear
3:35 PM 102.2 °F 35.6 °F 10% 29.74 in 10.0 mi South 11.5 mph - N/A   Clear
3:55 PM 102.2 °F 37.4 °F 11% 29.73 in 10.0 mi South 5.8 mph - N/A   Clear
4:15 PM 102.2 °F 37.4 °F 11% 29.72 in 10.0 mi SSW 3.5 mph - N/A   Clear
4:35 PM 102.2 °F 35.6 °F 10% 29.71 in 10.0 mi South 5.8 mph - N/A   Clear
4:55 PM 104.0 °F 35.6 °F 9% 29.70 in 10.0 mi West 6.9 mph - N/A   Clear
5:15 PM 104.0 °F 35.6 °F 9% 29.69 in 10.0 mi Calm Calm - N/A   Clear
5:35 PM 104.0 °F 35.6 °F 9% 29.69 in 10.0 mi SW 8.1 mph - N/A   Clear
5:55 PM 104.0 °F 35.6 °F 9% 29.68 in 10.0 mi West 9.2 mph - N/A   Clear
6:15 PM 102.2 °F 35.6 °F 10% 29.68 in 10.0 mi SW 6.9 mph - N/A   Clear
6:35 PM 102.2 °F 37.4 °F 11% 29.68 in 10.0 mi WSW 6.9 mph - N/A   Clear
6:55 PM 100.4 °F 39.2 °F 12% 29.69 in 10.0 mi WSW 4.6 mph - N/A   Clear
7:15 PM 98.6 °F 41.0 °F 14% 29.69 in 10.0 mi WSW 6.9 mph - N/A   Clear
7:35 PM 98.6 °F 37.4 °F 12% 29.69 in 10.0 mi WSW 6.9 mph - N/A   Clear
7:55 PM 95.0 °F 37.4 °F 13% 29.69 in 10.0 mi SW 8.1 mph - N/A   Clear
8:15 PM 95.0 °F 37.4 °F 13% 29.70 in 10.0 mi SW 6.9 mph - N/A   Clear
8:35 PM 93.2 °F 37.4 °F 14% 29.71 in 10.0 mi SW 6.9 mph - N/A   Clear
8:55 PM 91.4 °F 41.0 °F 17% 29.72 in 10.0 mi South 4.6 mph - N/A   Clear
9:15 PM 91.4 °F 39.2 °F 16% 29.73 in 10.0 mi SSW 9.2 mph - N/A   Clear
9:35 PM 89.6 °F 41.0 °F 18% 29.74 in 10.0 mi South 8.1 mph - N/A   Clear
9:55 PM 89.6 °F 39.2 °F 17% 29.74 in 10.0 mi SSW 9.2 mph - N/A   Clear
10:15 PM 89.6 °F 39.2 °F 17% 29.75 in 10.0 mi SSW 9.2 mph - N/A   Clear
10:35 PM 87.8 °F 39.2 °F 18% 29.76 in 10.0 mi South 5.8 mph - N/A   Clear
10:55 PM 84.2 °F 41.0 °F 22% 29.76 in 10.0 mi SSW 5.8 mph - N/A   Clear
11:15 PM 86.0 °F 39.2 °F 19% 29.76 in 10.0 mi SSW 5.8 mph - N/A   Clear
11:35 PM 84.2 °F 39.2 °F 20% 29.76 in 10.0 mi Calm Calm - N/A   Clear
11:55 PM 86.0 °F 37.4 °F 18% 29.76 in 10.0 mi NW 3.5 mph - N/A   Clear